User: anonymous   Login
Location: Hepcat Sky Observatory
(29.9800°N, 95.6500°W)
Time: 23:55:37
(UTC-05:00)
Language:

Cosmos 1602 Rocket - Orbit

View from above orbital plane
View from above orbital plane
View from above satellite
View from above satellite

Ground track
Ground track

The orbit data is extracted from the following two-line orbital elements,

1 15332U 84105B   15106.81736472  .00000683  00000-0  80685-4 0  9991
2 15332 082.5371 208.6003 0022817 102.3334 047.2248 14.83045396649130
Epoch (UTC): 16 April 2015 19:37:00
Eccentricity: 0.0022817
inclination: 82.5371°
perigee height: 604 km
apogee height: 636 km
right ascension of ascending node: 208.6003°
argument of perigee: 102.3334°
revolutions per day: 14.83045396
mean anomaly at epoch: 47.2248°
orbit number at epoch: 64913

The dashed part of the orbit path shows where the satellite is in the earth's shadow,  

DLR